Location: Columbia
(38.9520°N, 92.3340°W)
Time: 10:10:13
(UTC-05:00)

Cosmos 1603 - Visible Passes

Search period start: 28 June 2016 00:00
Search period end: 08 July 2016 00:00
Orbit: 832 x 859 km, 71.0° (Epoch: 28 June)

Date Brightness Start Highest point End Pass type
(mag) Time Alt. Az. Time Alt. Az. Time Alt. Az.
28 Jun 3.7 00:55:36 10° NNW 01:01:18 74° ENE 01:01:33 73° E visible
28 Jun 5.8 02:41:57 10° WNW 02:43:25 13° W 02:43:25 13° W visible
28 Jun 6.1 23:00:29 10° NNE 23:02:15 11° NE 23:04:00 10° ENE visible
29 Jun 3.7 00:41:42 10° NNW 00:47:24 72° ENE 00:47:42 70° E visible
29 Jun 5.8 02:27:54 10° WNW 02:29:34 13° W 02:29:34 13° W visible
29 Jun 6.1 22:46:48 10° NNE 22:48:19 11° NE 22:49:50 10° ENE visible
30 Jun 3.7 00:27:48 10° NNW 00:33:30 70° ENE 00:33:53 67° E visible
30 Jun 5.7 02:13:53 10° WNW 02:15:45 14° W 02:15:45 14° W visible
30 Jun 6.1 22:33:09 10° NNE 22:34:23 11° NE 22:35:36 10° ENE visible
01 Jul 3.7 00:13:55 10° NNW 00:19:36 68° ENE 00:20:06 64° E visible
01 Jul 5.7 01:59:52 10° WNW 02:01:59 15° W 02:01:59 15° W visible
01 Jul 6.1 22:19:35 10° NE 22:20:27 10° NE 22:21:17 10° NE visible
02 Jul 3.8 00:00:01 10° NNW 00:05:41 65° ENE 00:06:21 60° ESE visible
02 Jul 5.7 01:45:51 10° WNW 01:48:14 15° W 01:48:14 15° W visible
02 Jul 3.8 23:46:08 10° NNW 23:51:48 63° ENE 23:52:39 56° ESE visible
03 Jul 5.7 01:31:51 10° WNW 01:34:32 16° W 01:34:32 16° W visible
03 Jul 3.9 23:32:14 10° NNW 23:37:53 61° ENE 23:38:58 52° ESE visible
04 Jul 5.6 01:17:51 10° WNW 01:20:51 17° W 01:20:51 17° W visible
04 Jul 3.9 23:18:21 10° NNW 23:24:00 59° ENE 23:25:19 47° ESE visible
05 Jul 5.6 01:03:51 10° WNW 01:07:12 18° W 01:07:12 18° W visible
05 Jul 4.0 23:04:27 10° NNW 23:10:06 57° ENE 23:11:43 42° ESE visible
06 Jul 5.5 00:49:52 10° WNW 00:53:36 19° W 00:53:36 19° W visible
06 Jul 4.0 22:50:34 10° NNW 22:56:11 56° ENE 22:58:08 38° ESE visible
07 Jul 5.5 00:35:53 10° NW 00:39:48 19° W 00:40:01 19° WSW visible
07 Jul 4.0 22:36:41 10° NNW 22:42:17 54° ENE 22:44:35 33° ESE visible
